Year,Month,Day,Hour,Minute,Value (Times are PST for temperature in C)
2021,06,28,00,00,27.70
2021,06,28,00,01,27.70
2021,06,28,00,02,27.70
2021,06,28,00,03,27.70
2021,06,28,00,04,27.70
2021,06,28,00,05,27.60
2021,06,28,00,06,27.60
2021,06,28,00,07,27.60
2021,06,28,00,08,27.60
2021,06,28,00,09,27.60
2021,06,28,00,10,27.50
2021,06,28,00,11,27.50
2021,06,28,00,12,27.50
2021,06,28,00,13,27.40
2021,06,28,00,14,27.40
2021,06,28,00,15,27.40
2021,06,28,00,16,27.30
2021,06,28,00,17,27.30
2021,06,28,00,18,27.30
2021,06,28,00,19,27.30
2021,06,28,00,20,27.40
2021,06,28,00,21,27.40
2021,06,28,00,22,27.40
2021,06,28,00,23,27.40
2021,06,28,00,24,27.50
2021,06,28,00,25,27.50
2021,06,28,00,26,27.40
2021,06,28,00,27,27.40
2021,06,28,00,28,27.40
2021,06,28,00,29,27.30
2021,06,28,00,30,27.30
2021,06,28,00,31,27.30
2021,06,28,00,32,27.30
2021,06,28,00,33,27.20
2021,06,28,00,34,27.20
2021,06,28,00,35,27.20
2021,06,28,00,36,27.20
2021,06,28,00,37,27.10
2021,06,28,00,38,27.10
2021,06,28,00,39,27.10
2021,06,28,00,40,27.10
2021,06,28,00,41,27.10
2021,06,28,00,42,27.10
2021,06,28,00,43,27.10
2021,06,28,00,44,27.10
2021,06,28,00,45,27.00
2021,06,28,00,46,27.00
2021,06,28,00,47,27.00
2021,06,28,00,48,27.00
2021,06,28,00,49,27.00
2021,06,28,00,50,27.00
2021,06,28,00,51,26.90
2021,06,28,00,52,26.90
2021,06,28,00,53,26.80
2021,06,28,00,54,26.80
2021,06,28,00,55,26.90
2021,06,28,00,56,26.90
2021,06,28,00,57,26.90
2021,06,28,00,58,26.90
2021,06,28,00,59,27.00
2021,06,28,01,00,27.10
2021,06,28,01,01,27.30
2021,06,28,01,02,27.50
2021,06,28,01,03,27.70
2021,06,28,01,04,27.90
2021,06,28,01,05,28.10
2021,06,28,01,06,28.20
2021,06,28,01,07,28.30
2021,06,28,01,08,28.40
2021,06,28,01,09,28.50
2021,06,28,01,10,28.60
2021,06,28,01,11,28.70
2021,06,28,01,12,28.70
2021,06,28,01,13,28.70
2021,06,28,01,14,28.70
2021,06,28,01,15,28.70
2021,06,28,01,16,28.70
2021,06,28,01,17,28.80
2021,06,28,01,18,28.80
2021,06,28,01,19,28.70
2021,06,28,01,20,28.70
2021,06,28,01,21,28.70
2021,06,28,01,22,28.70
2021,06,28,01,23,28.70
2021,06,28,01,24,28.70
2021,06,28,01,25,28.80
2021,06,28,01,26,28.80
2021,06,28,01,27,28.80
2021,06,28,01,28,28.80
2021,06,28,01,29,28.80
2021,06,28,01,30,28.70
2021,06,28,01,31,28.60
2021,06,28,01,32,28.60
2021,06,28,01,33,28.50
2021,06,28,01,34,28.50
2021,06,28,01,35,28.40
2021,06,28,01,36,28.30
2021,06,28,01,37,28.20
2021,06,28,01,38,28.20
2021,06,28,01,39,28.10
2021,06,28,01,40,28.10
2021,06,28,01,41,28.00
2021,06,28,01,42,28.00
2021,06,28,01,43,28.00
2021,06,28,01,44,27.90
2021,06,28,01,45,27.80
2021,06,28,01,46,27.80
2021,06,28,01,47,27.70
2021,06,28,01,48,27.70
2021,06,28,01,49,27.70
2021,06,28,01,50,27.60
2021,06,28,01,51,27.60
2021,06,28,01,52,27.60
2021,06,28,01,53,27.60
2021,06,28,01,54,27.60
2021,06,28,01,55,27.50
2021,06,28,01,56,27.50
2021,06,28,01,57,27.40
2021,06,28,01,58,27.20
2021,06,28,01,59,27.10
2021,06,28,02,00,27.00
2021,06,28,02,01,26.80
2021,06,28,02,02,26.70
2021,06,28,02,03,26.60
2021,06,28,02,04,26.50
2021,06,28,02,05,26.40
2021,06,28,02,06,26.30
2021,06,28,02,07,26.20
2021,06,28,02,08,26.10
2021,06,28,02,09,26.00
2021,06,28,02,10,25.90
2021,06,28,02,11,25.80
2021,06,28,02,12,25.80
2021,06,28,02,13,25.70
2021,06,28,02,14,25.60
2021,06,28,02,15,25.50
2021,06,28,02,16,25.40
2021,06,28,02,17,25.40
2021,06,28,02,18,25.30
2021,06,28,02,19,25.30
2021,06,28,02,20,25.20
2021,06,28,02,21,25.10
2021,06,28,02,22,25.10
2021,06,28,02,23,25.00
2021,06,28,02,24,25.00
2021,06,28,02,25,25.00
2021,06,28,02,26,24.90
2021,06,28,02,27,24.90
2021,06,28,02,28,24.90
2021,06,28,02,29,24.90
2021,06,28,02,30,24.90
2021,06,28,02,31,24.80
2021,06,28,02,32,24.80
2021,06,28,02,33,24.80
2021,06,28,02,34,24.80
2021,06,28,02,35,24.90
2021,06,28,02,36,24.90
2021,06,28,02,37,25.00
2021,06,28,02,38,25.10
2021,06,28,02,39,25.20
2021,06,28,02,40,25.20
2021,06,28,02,41,25.30
2021,06,28,02,42,25.50
2021,06,28,02,43,25.60
2021,06,28,02,44,25.60
2021,06,28,02,45,25.70
2021,06,28,02,46,25.80
2021,06,28,02,47,25.90
2021,06,28,02,48,26.00
2021,06,28,02,49,26.10
2021,06,28,02,50,26.10
2021,06,28,02,51,26.20
2021,06,28,02,52,26.20
2021,06,28,02,53,26.10
2021,06,28,02,54,26.10
2021,06,28,02,55,26.20
2021,06,28,02,56,26.20
2021,06,28,02,57,26.20
2021,06,28,02,58,26.20
2021,06,28,02,59,26.30
2021,06,28,03,00,26.40
2021,06,28,03,01,26.40
2021,06,28,03,02,26.50
2021,06,28,03,03,26.50
2021,06,28,03,04,26.50
2021,06,28,03,05,26.40
2021,06,28,03,06,26.40
2021,06,28,03,07,26.40
2021,06,28,03,08,26.40
2021,06,28,03,09,26.40
2021,06,28,03,10,26.30
2021,06,28,03,11,26.30
2021,06,28,03,12,26.20
2021,06,28,03,13,26.20
2021,06,28,03,14,26.10
2021,06,28,03,15,26.00
2021,06,28,03,16,26.00
2021,06,28,03,17,25.90
2021,06,28,03,18,25.90
2021,06,28,03,19,25.90
2021,06,28,03,20,25.80
2021,06,28,03,21,25.80
2021,06,28,03,22,25.80
2021,06,28,03,23,25.80
2021,06,28,03,24,25.70
2021,06,28,03,25,25.70
2021,06,28,03,26,25.70
2021,06,28,03,27,25.70
2021,06,28,03,28,25.70
2021,06,28,03,29,25.60
2021,06,28,03,30,25.60
2021,06,28,03,31,25.60
2021,06,28,03,32,25.60
2021,06,28,03,33,25.50
2021,06,28,03,34,25.50
2021,06,28,03,35,25.50
2021,06,28,03,36,25.50
2021,06,28,03,37,25.50
2021,06,28,03,38,25.50
2021,06,28,03,39,25.60
2021,06,28,03,40,25.60
2021,06,28,03,41,25.60
2021,06,28,03,42,25.60
2021,06,28,03,43,25.60
2021,06,28,03,44,25.60
2021,06,28,03,45,25.60
2021,06,28,03,46,25.60
2021,06,28,03,47,25.60
2021,06,28,03,48,25.60
2021,06,28,03,49,25.50
2021,06,28,03,50,25.50
2021,06,28,03,51,25.50
2021,06,28,03,52,25.40
2021,06,28,03,53,25.40
2021,06,28,03,54,25.30
2021,06,28,03,55,25.30
2021,06,28,03,56,25.30
2021,06,28,03,57,25.30
2021,06,28,03,58,25.20
2021,06,28,03,59,25.20
2021,06,28,04,00,25.20
2021,06,28,04,01,25.20
2021,06,28,04,02,25.10
2021,06,28,04,03,25.10
2021,06,28,04,04,25.10
2021,06,28,04,05,25.00
2021,06,28,04,06,25.00
2021,06,28,04,07,25.00
2021,06,28,04,08,25.00
2021,06,28,04,09,25.00
2021,06,28,04,10,25.00
2021,06,28,04,11,25.10
2021,06,28,04,12,25.10
2021,06,28,04,13,25.10
2021,06,28,04,14,25.10
2021,06,28,04,15,25.10
2021,06,28,04,16,25.10
2021,06,28,04,17,25.10
2021,06,28,04,18,25.10
2021,06,28,04,19,25.20
2021,06,28,04,20,25.20
2021,06,28,04,21,25.20
2021,06,28,04,22,25.30
2021,06,28,04,23,25.30
2021,06,28,04,24,25.30
2021,06,28,04,25,25.30
2021,06,28,04,26,25.30
2021,06,28,04,27,25.30
2021,06,28,04,28,25.30
2021,06,28,04,29,25.30
2021,06,28,04,30,25.30
2021,06,28,04,31,25.30
2021,06,28,04,32,25.30
2021,06,28,04,33,25.30
2021,06,28,04,34,25.20
2021,06,28,04,35,25.20
2021,06,28,04,36,25.20
2021,06,28,04,37,25.20
2021,06,28,04,38,25.10
2021,06,28,04,39,25.10
2021,06,28,04,40,25.10
2021,06,28,04,41,25.10
2021,06,28,04,42,25.10
2021,06,28,04,43,25.00
2021,06,28,04,44,25.00
2021,06,28,04,45,25.00
2021,06,28,04,46,25.00
2021,06,28,04,47,25.00
2021,06,28,04,48,24.90
2021,06,28,04,49,24.90
2021,06,28,04,50,24.90
2021,06,28,04,51,24.90
2021,06,28,04,52,24.80
2021,06,28,04,53,24.80
2021,06,28,04,54,24.80
2021,06,28,04,55,24.70
2021,06,28,04,56,24.70
2021,06,28,04,57,24.70
2021,06,28,04,58,24.60
2021,06,28,04,59,24.60
2021,06,28,05,00,24.60
2021,06,28,05,01,24.60
2021,06,28,05,02,24.60
2021,06,28,05,03,24.60
2021,06,28,05,04,24.50
2021,06,28,05,05,24.50
2021,06,28,05,06,24.50
2021,06,28,05,07,24.60
2021,06,28,05,08,24.60
2021,06,28,05,09,24.60
2021,06,28,05,10,24.60
2021,06,28,05,11,24.70
2021,06,28,05,12,24.70
2021,06,28,05,13,24.70
2021,06,28,05,14,24.80
2021,06,28,05,15,24.80
2021,06,28,05,16,24.90
2021,06,28,05,17,24.90
2021,06,28,05,18,25.00
2021,06,28,05,19,25.00
2021,06,28,05,20,25.10
2021,06,28,05,21,25.10
2021,06,28,05,22,25.20
2021,06,28,05,23,25.20
2021,06,28,05,24,25.20
2021,06,28,05,25,25.30
2021,06,28,05,26,25.30
2021,06,28,05,27,25.30
2021,06,28,05,28,25.40
2021,06,28,05,29,25.40
2021,06,28,05,30,25.40
2021,06,28,05,31,25.40
2021,06,28,05,32,25.30
2021,06,28,05,33,25.30
2021,06,28,05,34,25.30
2021,06,28,05,35,25.30
2021,06,28,05,36,25.30
2021,06,28,05,37,25.30
2021,06,28,05,38,25.30
2021,06,28,05,39,25.40
2021,06,28,05,40,25.40
2021,06,28,05,41,25.50
2021,06,28,05,42,25.60
2021,06,28,05,43,25.70
2021,06,28,05,44,25.80
2021,06,28,05,45,25.90
2021,06,28,05,46,26.00
2021,06,28,05,47,26.20
2021,06,28,05,48,26.50
2021,06,28,05,49,26.70
2021,06,28,05,50,26.90
2021,06,28,05,51,27.00
2021,06,28,05,52,27.20
2021,06,28,05,53,27.40
2021,06,28,05,54,27.60
2021,06,28,05,55,27.70
2021,06,28,05,56,27.80
2021,06,28,05,57,27.90
2021,06,28,05,58,28.00
2021,06,28,05,59,28.00
2021,06,28,06,00,28.00
2021,06,28,06,01,28.00
2021,06,28,06,02,28.00
2021,06,28,06,03,28.00
2021,06,28,06,04,28.00
2021,06,28,06,05,27.90
2021,06,28,06,06,27.80
2021,06,28,06,07,27.70
2021,06,28,06,08,27.50
2021,06,28,06,09,27.30
2021,06,28,06,10,27.10
2021,06,28,06,11,26.90
2021,06,28,06,12,26.60
2021,06,28,06,13,26.40
2021,06,28,06,14,26.20
2021,06,28,06,15,26.00
2021,06,28,06,16,25.80
2021,06,28,06,17,25.70
2021,06,28,06,18,25.60
2021,06,28,06,19,25.50
2021,06,28,06,20,25.50
2021,06,28,06,21,25.40
2021,06,28,06,22,25.40
2021,06,28,06,23,25.40
2021,06,28,06,24,25.30
2021,06,28,06,25,25.30
2021,06,28,06,26,25.20
2021,06,28,06,27,25.10
2021,06,28,06,28,25.00
2021,06,28,06,29,24.90
2021,06,28,06,30,24.80
2021,06,28,06,31,24.70
2021,06,28,06,32,24.70
2021,06,28,06,33,24.60
2021,06,28,06,34,24.50
2021,06,28,06,35,24.50
2021,06,28,06,36,24.40
2021,06,28,06,37,24.40
2021,06,28,06,38,24.40
2021,06,28,06,39,24.40
2021,06,28,06,40,24.30
2021,06,28,06,41,24.30
2021,06,28,06,42,24.30
2021,06,28,06,43,24.30
2021,06,28,06,44,24.30
2021,06,28,06,45,24.30
2021,06,28,06,46,24.30
2021,06,28,06,47,24.30
2021,06,28,06,48,24.20
2021,06,28,06,49,24.20
2021,06,28,06,50,24.20
2021,06,28,06,51,24.20
2021,06,28,06,52,24.20
2021,06,28,06,53,24.20
2021,06,28,06,54,24.20
2021,06,28,06,55,24.20
2021,06,28,06,56,24.20
2021,06,28,06,57,24.10
2021,06,28,06,58,24.10
2021,06,28,06,59,24.10
2021,06,28,07,00,24.10
2021,06,28,07,01,24.10
2021,06,28,07,02,24.10
2021,06,28,07,03,24.10
2021,06,28,07,04,24.10
2021,06,28,07,05,24.10
2021,06,28,07,06,24.20
2021,06,28,07,07,24.20
2021,06,28,07,08,24.20
2021,06,28,07,09,24.20
2021,06,28,07,10,24.30
2021,06,28,07,11,24.50
2021,06,28,07,12,24.70
2021,06,28,07,13,24.90
2021,06,28,07,14,25.10
2021,06,28,07,15,25.20
2021,06,28,07,16,25.30
2021,06,28,07,17,25.30
2021,06,28,07,18,25.40
2021,06,28,07,19,25.60
2021,06,28,07,20,25.70
2021,06,28,07,21,25.80
2021,06,28,07,22,25.90
2021,06,28,07,23,26.00
2021,06,28,07,24,26.10
2021,06,28,07,25,26.10
2021,06,28,07,26,26.10
2021,06,28,07,27,26.10
2021,06,28,07,28,26.00
2021,06,28,07,29,25.90
2021,06,28,07,30,25.80
2021,06,28,07,31,25.70
2021,06,28,07,32,25.60
2021,06,28,07,33,25.50
2021,06,28,07,34,25.30
2021,06,28,07,35,25.20
2021,06,28,07,36,25.10
2021,06,28,07,37,25.00
2021,06,28,07,38,24.90
2021,06,28,07,39,24.80
2021,06,28,07,40,24.70
2021,06,28,07,41,24.60
2021,06,28,07,42,24.60
2021,06,28,07,43,24.50
2021,06,28,07,44,24.50
2021,06,28,07,45,24.60
2021,06,28,07,46,24.70
2021,06,28,07,47,24.90
2021,06,28,07,48,25.00
2021,06,28,07,49,25.10
2021,06,28,07,50,25.20
2021,06,28,07,51,25.20
2021,06,28,07,52,25.30
2021,06,28,07,53,25.30
2021,06,28,07,54,25.30
2021,06,28,07,55,25.30
2021,06,28,07,56,25.30
2021,06,28,07,57,25.40
2021,06,28,07,58,25.60
2021,06,28,07,59,25.80
2021,06,28,08,00,25.90
2021,06,28,08,01,26.10
2021,06,28,08,02,26.30
2021,06,28,08,03,26.50
2021,06,28,08,04,26.60
2021,06,28,08,05,26.70
2021,06,28,08,06,26.80
2021,06,28,08,07,27.00
2021,06,28,08,08,27.20
2021,06,28,08,09,27.30
2021,06,28,08,10,27.50
2021,06,28,08,11,27.60
2021,06,28,08,12,27.70
2021,06,28,08,13,27.80
2021,06,28,08,14,27.90
2021,06,28,08,15,27.90
2021,06,28,08,16,28.00
2021,06,28,08,17,28.00
2021,06,28,08,18,28.00
2021,06,28,08,19,28.10
2021,06,28,08,20,28.10
2021,06,28,08,21,28.10
2021,06,28,08,22,28.20
2021,06,28,08,23,28.20
2021,06,28,08,24,28.20
2021,06,28,08,25,28.20
2021,06,28,08,26,28.20
2021,06,28,08,27,28.20
2021,06,28,08,28,28.20
2021,06,28,08,29,28.20
2021,06,28,08,30,28.20
2021,06,28,08,31,28.20
2021,06,28,08,32,28.20
2021,06,28,08,33,28.20
2021,06,28,08,34,28.20
2021,06,28,08,35,28.30
2021,06,28,08,36,28.30
2021,06,28,08,37,28.20
2021,06,28,08,38,28.20
2021,06,28,08,39,28.20
2021,06,28,08,40,28.30
2021,06,28,08,41,28.30
2021,06,28,08,42,28.30
2021,06,28,08,43,28.30
2021,06,28,08,44,28.30
2021,06,28,08,45,28.30
2021,06,28,08,46,28.40
2021,06,28,08,47,28.40
2021,06,28,08,48,28.50
2021,06,28,08,49,28.50
2021,06,28,08,50,28.60
2021,06,28,08,51,28.60
2021,06,28,08,52,28.70
2021,06,28,08,53,28.70
2021,06,28,08,54,28.80
2021,06,28,08,55,28.80
2021,06,28,08,56,28.80
2021,06,28,08,57,28.70
2021,06,28,08,58,28.60
2021,06,28,08,59,28.50
2021,06,28,09,00,28.30
2021,06,28,09,01,28.20
2021,06,28,09,02,28.10
2021,06,28,09,03,27.90
2021,06,28,09,04,27.80
2021,06,28,09,05,27.70
2021,06,28,09,06,27.60
2021,06,28,09,07,27.50
2021,06,28,09,08,27.40
2021,06,28,09,09,27.30
2021,06,28,09,10,27.30
2021,06,28,09,11,27.20
2021,06,28,09,12,27.20
2021,06,28,09,13,27.20
2021,06,28,09,14,27.10
2021,06,28,09,15,27.10
2021,06,28,09,16,27.10
2021,06,28,09,17,27.20
2021,06,28,09,18,27.20
2021,06,28,09,19,27.20
2021,06,28,09,20,27.30
2021,06,28,09,21,27.30
2021,06,28,09,22,27.30
2021,06,28,09,23,27.30
2021,06,28,09,24,27.40
2021,06,28,09,25,27.40
2021,06,28,09,26,27.40
2021,06,28,09,27,27.50
2021,06,28,09,28,27.50
2021,06,28,09,29,27.60
2021,06,28,09,30,27.60
2021,06,28,09,31,27.70
2021,06,28,09,32,27.90
2021,06,28,09,33,28.10
2021,06,28,09,34,28.30
2021,06,28,09,35,28.40
2021,06,28,09,36,28.50
2021,06,28,09,37,28.60
2021,06,28,09,38,28.80
2021,06,28,09,39,28.90
2021,06,28,09,40,29.00
2021,06,28,09,41,29.10
2021,06,28,09,42,29.10
2021,06,28,09,43,29.20
2021,06,28,09,44,29.20
2021,06,28,09,45,29.30
2021,06,28,09,46,29.30
2021,06,28,09,47,29.30
2021,06,28,09,48,29.40
2021,06,28,09,49,29.40
2021,06,28,09,50,29.50
2021,06,28,09,51,29.50
2021,06,28,09,52,29.60
2021,06,28,09,53,29.60
2021,06,28,09,54,29.70
2021,06,28,09,55,29.70
2021,06,28,09,56,29.80
2021,06,28,09,57,29.80
2021,06,28,09,58,29.90
2021,06,28,09,59,29.90
2021,06,28,10,00,29.90
2021,06,28,10,01,30.00
2021,06,28,10,02,30.10
2021,06,28,10,03,30.10
2021,06,28,10,04,30.20
2021,06,28,10,05,30.20
2021,06,28,10,06,30.30
2021,06,28,10,07,30.20
2021,06,28,10,08,30.30
2021,06,28,10,09,30.30
2021,06,28,10,10,30.30
2021,06,28,10,11,30.30
2021,06,28,10,12,30.40
2021,06,28,10,13,30.40
2021,06,28,10,14,30.40
2021,06,28,10,15,30.50
2021,06,28,10,16,30.50
2021,06,28,10,17,30.60
2021,06,28,10,18,30.60
2021,06,28,10,19,30.70
2021,06,28,10,20,30.70
2021,06,28,10,21,30.80
2021,06,28,10,22,30.80
2021,06,28,10,23,30.80
2021,06,28,10,24,30.90
2021,06,28,10,25,30.90
2021,06,28,10,26,31.00
2021,06,28,10,27,31.00
2021,06,28,10,28,31.00
2021,06,28,10,29,31.10
2021,06,28,10,30,31.20
2021,06,28,10,31,31.20
2021,06,28,10,32,31.30
2021,06,28,10,33,31.30
2021,06,28,10,34,31.30
2021,06,28,10,35,31.30
2021,06,28,10,36,31.30
2021,06,28,10,37,31.30
2021,06,28,10,38,31.30
2021,06,28,10,39,31.40
2021,06,28,10,40,31.40
2021,06,28,10,41,31.50
2021,06,28,10,42,31.50
2021,06,28,10,43,31.50
2021,06,28,10,44,31.60
2021,06,28,10,45,31.60
2021,06,28,10,46,31.60
2021,06,28,10,47,31.60
2021,06,28,10,48,31.60
2021,06,28,10,49,31.60
2021,06,28,10,50,31.60
2021,06,28,10,51,31.60
2021,06,28,10,52,31.70
2021,06,28,10,53,31.80
2021,06,28,10,54,31.80
2021,06,28,10,55,31.90
2021,06,28,10,56,32.00
2021,06,28,10,57,32.10
2021,06,28,10,58,32.10
2021,06,28,10,59,32.30
2021,06,28,11,00,32.30
2021,06,28,11,01,32.40
2021,06,28,11,02,32.50
2021,06,28,11,03,32.50
2021,06,28,11,04,32.50
2021,06,28,11,05,32.50
2021,06,28,11,06,32.50
2021,06,28,11,07,32.50
2021,06,28,11,08,32.60
2021,06,28,11,09,32.60
2021,06,28,11,10,32.70
2021,06,28,11,11,32.70
2021,06,28,11,12,32.70
2021,06,28,11,13,32.70
2021,06,28,11,14,32.60
2021,06,28,11,15,32.60
2021,06,28,11,16,32.50
2021,06,28,11,17,32.50
2021,06,28,11,18,32.40
2021,06,28,11,19,32.40
2021,06,28,11,20,32.40
2021,06,28,11,21,32.40
2021,06,28,11,22,32.40
2021,06,28,11,23,32.50
2021,06,28,11,24,32.50
2021,06,28,11,25,32.60
2021,06,28,11,26,32.70
2021,06,28,11,27,32.80
2021,06,28,11,28,32.90
2021,06,28,11,29,33.00
2021,06,28,11,30,33.10
2021,06,28,11,31,33.10
2021,06,28,11,32,33.20
2021,06,28,11,33,33.20
2021,06,28,11,34,33.20
2021,06,28,11,35,33.20
2021,06,28,11,36,33.20
2021,06,28,11,37,33.10
2021,06,28,11,38,33.10
2021,06,28,11,39,33.00
2021,06,28,11,40,33.10
2021,06,28,11,41,33.10
2021,06,28,11,42,33.10
2021,06,28,11,43,33.20
2021,06,28,11,44,33.20
2021,06,28,11,45,33.20
2021,06,28,11,46,33.20
2021,06,28,11,47,33.30
2021,06,28,11,48,33.30
2021,06,28,11,49,33.20
2021,06,28,11,50,33.20
2021,06,28,11,51,33.20
2021,06,28,11,52,33.20
2021,06,28,11,53,33.30
2021,06,28,11,54,33.30
2021,06,28,11,55,33.20
2021,06,28,11,56,33.20
2021,06,28,11,57,33.20
2021,06,28,11,58,33.20
2021,06,28,11,59,33.20
2021,06,28,12,00,33.20
2021,06,28,12,01,33.20
2021,06,28,12,02,33.20
2021,06,28,12,03,33.10
2021,06,28,12,04,33.10
2021,06,28,12,05,33.10
2021,06,28,12,06,33.20
2021,06,28,12,07,33.20
2021,06,28,12,08,33.20
2021,06,28,12,09,33.20
2021,06,28,12,10,33.30
2021,06,28,12,11,33.30
2021,06,28,12,12,33.30
2021,06,28,12,13,33.40
2021,06,28,12,14,33.40
2021,06,28,12,15,33.50
2021,06,28,12,16,33.60
2021,06,28,12,17,33.60
2021,06,28,12,18,33.60
2021,06,28,12,19,33.60
2021,06,28,12,20,33.50
2021,06,28,12,21,33.50
2021,06,28,12,22,33.50
2021,06,28,12,23,33.50
2021,06,28,12,24,33.60
2021,06,28,12,25,33.60
2021,06,28,12,26,33.60
2021,06,28,12,27,33.70
2021,06,28,12,28,33.70
2021,06,28,12,29,33.70
2021,06,28,12,30,33.70
2021,06,28,12,31,33.60
2021,06,28,12,32,33.60
2021,06,28,12,33,33.50
2021,06,28,12,34,33.50
2021,06,28,12,35,33.50
2021,06,28,12,36,33.50
2021,06,28,12,37,33.50
2021,06,28,12,38,33.40
2021,06,28,12,39,33.50
2021,06,28,12,40,33.50
2021,06,28,12,41,33.40
2021,06,28,12,42,33.50
2021,06,28,12,43,33.50
2021,06,28,12,44,33.50
2021,06,28,12,45,33.60
2021,06,28,12,46,33.70
2021,06,28,12,47,33.80
2021,06,28,12,48,33.80
2021,06,28,12,49,33.90
2021,06,28,12,50,33.90
2021,06,28,12,51,34.00
2021,06,28,12,52,34.10
2021,06,28,12,53,34.10
2021,06,28,12,54,34.10
2021,06,28,12,55,34.20
2021,06,28,12,56,34.20
2021,06,28,12,57,34.20
2021,06,28,12,58,34.20
2021,06,28,12,59,34.20
2021,06,28,13,00,34.20
2021,06,28,13,01,34.20
2021,06,28,13,02,34.20
2021,06,28,13,03,34.20
2021,06,28,13,04,34.20
2021,06,28,13,05,34.30
2021,06,28,13,06,34.30
2021,06,28,13,07,34.40
2021,06,28,13,08,34.40
2021,06,28,13,09,34.50
2021,06,28,13,10,34.50
2021,06,28,13,11,34.60
2021,06,28,13,12,34.70
2021,06,28,13,13,34.70
2021,06,28,13,14,34.80
2021,06,28,13,15,34.80
2021,06,28,13,16,34.80
2021,06,28,13,17,34.80
2021,06,28,13,18,34.90
2021,06,28,13,19,35.00
2021,06,28,13,20,35.00
2021,06,28,13,21,35.10
2021,06,28,13,22,35.10
2021,06,28,13,23,35.20
2021,06,28,13,24,35.30
2021,06,28,13,25,35.30
2021,06,28,13,26,35.40
2021,06,28,13,27,35.50
2021,06,28,13,28,35.60
2021,06,28,13,29,35.60
2021,06,28,13,30,35.60
2021,06,28,13,31,35.70
2021,06,28,13,32,35.70
2021,06,28,13,33,35.60
2021,06,28,13,34,35.70
2021,06,28,13,35,35.70
2021,06,28,13,36,35.70
2021,06,28,13,37,35.80
2021,06,28,13,38,35.80
2021,06,28,13,39,35.90
2021,06,28,13,40,35.90
2021,06,28,13,41,35.90
2021,06,28,13,42,36.00
2021,06,28,13,43,36.00
2021,06,28,13,44,36.10
2021,06,28,13,45,36.10
2021,06,28,13,46,36.10
2021,06,28,13,47,36.10
2021,06,28,13,48,36.10
2021,06,28,13,49,36.20
2021,06,28,13,50,36.20
2021,06,28,13,51,36.30
2021,06,28,13,52,36.30
2021,06,28,13,53,36.30
2021,06,28,13,54,36.30
2021,06,28,13,55,36.30
2021,06,28,13,56,36.20
2021,06,28,13,57,36.20
2021,06,28,13,58,36.20
2021,06,28,13,59,36.20
2021,06,28,14,00,36.20
2021,06,28,14,01,36.30
2021,06,28,14,02,36.30
2021,06,28,14,03,36.40
2021,06,28,14,04,36.30
2021,06,28,14,05,36.20
2021,06,28,14,06,36.20
2021,06,28,14,07,36.20
2021,06,28,14,08,36.20
2021,06,28,14,09,36.20
2021,06,28,14,10,36.20
2021,06,28,14,11,36.20
2021,06,28,14,12,36.20
2021,06,28,14,13,36.20
2021,06,28,14,14,36.20
2021,06,28,14,15,36.20
2021,06,28,14,16,36.20
2021,06,28,14,17,36.30
2021,06,28,14,18,36.30
2021,06,28,14,19,36.40
2021,06,28,14,20,36.40
2021,06,28,14,21,36.40
2021,06,28,14,22,36.40
2021,06,28,14,23,36.40
2021,06,28,14,24,36.40
2021,06,28,14,25,36.50
2021,06,28,14,26,36.50
2021,06,28,14,27,36.50
2021,06,28,14,28,36.60
2021,06,28,14,29,36.70
2021,06,28,14,30,36.80
2021,06,28,14,31,36.80
2021,06,28,14,32,36.90
2021,06,28,14,33,37.00
2021,06,28,14,34,37.10
2021,06,28,14,35,37.10
2021,06,28,14,36,37.20
2021,06,28,14,37,37.20
2021,06,28,14,38,37.20
2021,06,28,14,39,37.20
2021,06,28,14,40,37.20
2021,06,28,14,41,37.20
2021,06,28,14,42,37.30
2021,06,28,14,43,37.30
2021,06,28,14,44,37.30
2021,06,28,14,45,37.30
2021,06,28,14,46,37.30
2021,06,28,14,47,37.40
2021,06,28,14,48,37.40
2021,06,28,14,49,37.40
2021,06,28,14,50,37.50
2021,06,28,14,51,37.60
2021,06,28,14,52,37.60
2021,06,28,14,53,37.70
2021,06,28,14,54,37.70
2021,06,28,14,55,37.80
2021,06,28,14,56,37.80
2021,06,28,14,57,37.70
2021,06,28,14,58,37.70
2021,06,28,14,59,37.60
2021,06,28,15,00,37.50
2021,06,28,15,01,37.50
2021,06,28,15,02,37.50
2021,06,28,15,03,37.50
2021,06,28,15,04,37.50
2021,06,28,15,05,37.60
2021,06,28,15,06,37.50
2021,06,28,15,07,37.60
2021,06,28,15,08,37.60
2021,06,28,15,09,37.60
2021,06,28,15,10,37.70
2021,06,28,15,11,37.70
2021,06,28,15,12,37.80
2021,06,28,15,13,37.90
2021,06,28,15,14,38.00
2021,06,28,15,15,38.10
2021,06,28,15,16,38.10
2021,06,28,15,17,38.20
2021,06,28,15,18,38.20
2021,06,28,15,19,38.20
2021,06,28,15,20,38.20
2021,06,28,15,21,38.20
2021,06,28,15,22,38.20
2021,06,28,15,23,38.20
2021,06,28,15,24,38.30
2021,06,28,15,25,38.30
2021,06,28,15,26,38.30
2021,06,28,15,27,38.30
2021,06,28,15,28,38.30
2021,06,28,15,29,38.30
2021,06,28,15,30,38.30
2021,06,28,15,31,38.40
2021,06,28,15,32,38.40
2021,06,28,15,33,38.50
2021,06,28,15,34,38.50
2021,06,28,15,35,38.50
2021,06,28,15,36,38.50
2021,06,28,15,37,38.50
2021,06,28,15,38,38.50
2021,06,28,15,39,38.50
2021,06,28,15,40,38.50
2021,06,28,15,41,38.50
2021,06,28,15,42,38.50
2021,06,28,15,43,38.50
2021,06,28,15,44,38.60
2021,06,28,15,45,38.60
2021,06,28,15,46,38.60
2021,06,28,15,47,38.60
2021,06,28,15,48,38.70
2021,06,28,15,49,38.80
2021,06,28,15,50,38.80
2021,06,28,15,51,38.80
2021,06,28,15,52,38.80
2021,06,28,15,53,38.80
2021,06,28,15,54,38.80
2021,06,28,15,55,38.80
2021,06,28,15,56,38.80
2021,06,28,15,57,38.80
2021,06,28,15,58,38.70
2021,06,28,15,59,38.60
2021,06,28,16,00,38.60
2021,06,28,16,01,38.60
2021,06,28,16,02,38.50
2021,06,28,16,03,38.50
2021,06,28,16,04,38.40
2021,06,28,16,05,38.40
2021,06,28,16,06,38.30
2021,06,28,16,07,38.30
2021,06,28,16,08,38.30
2021,06,28,16,09,38.20
2021,06,28,16,10,38.20
2021,06,28,16,11,38.20
2021,06,28,16,12,38.20
2021,06,28,16,13,38.20
2021,06,28,16,14,38.20
2021,06,28,16,15,38.10
2021,06,28,16,16,38.10
2021,06,28,16,17,38.10
2021,06,28,16,18,38.10
2021,06,28,16,19,38.00
2021,06,28,16,20,38.00
2021,06,28,16,21,37.90
2021,06,28,16,22,38.00
2021,06,28,16,23,38.00
2021,06,28,16,24,38.00
2021,06,28,16,25,38.10
2021,06,28,16,26,38.10
2021,06,28,16,27,38.10
2021,06,28,16,28,38.10
2021,06,28,16,29,38.10
2021,06,28,16,30,38.20
2021,06,28,16,31,38.20
2021,06,28,16,32,38.20
2021,06,28,16,33,38.20
2021,06,28,16,34,38.30
2021,06,28,16,35,38.30
2021,06,28,16,36,38.30
2021,06,28,16,37,38.30
2021,06,28,16,38,38.30
2021,06,28,16,39,38.30
2021,06,28,16,40,38.30
2021,06,28,16,41,38.30
2021,06,28,16,42,38.30
2021,06,28,16,43,38.30
2021,06,28,16,44,38.20
2021,06,28,16,45,38.10
2021,06,28,16,46,38.10
2021,06,28,16,47,38.00
2021,06,28,16,48,38.00
2021,06,28,16,49,37.90
2021,06,28,16,50,37.90
2021,06,28,16,51,37.90
2021,06,28,16,52,38.00
2021,06,28,16,53,38.00
2021,06,28,16,54,38.00
2021,06,28,16,55,38.10
2021,06,28,16,56,38.10
2021,06,28,16,57,38.00
2021,06,28,16,58,38.00
2021,06,28,16,59,38.00
2021,06,28,17,00,38.00
2021,06,28,17,01,38.00
2021,06,28,17,02,38.00
2021,06,28,17,03,38.10
2021,06,28,17,04,38.10
2021,06,28,17,05,38.10
2021,06,28,17,06,38.10
2021,06,28,17,07,38.10
2021,06,28,17,08,38.10
2021,06,28,17,09,38.10
2021,06,28,17,10,38.10
2021,06,28,17,11,38.10
2021,06,28,17,12,38.20
2021,06,28,17,13,38.20
2021,06,28,17,14,38.20
2021,06,28,17,15,38.20
2021,06,28,17,16,38.20
2021,06,28,17,17,38.20
2021,06,28,17,18,38.30
2021,06,28,17,19,38.30